Location: Niedergestelen
(46.3129°N, 7.7822°E)
Time: 13:06:45
(UTC+00:00)

IRS-1C Rocket - Pass Details

Date: 01 December 2020
Orbit: 800 x 806 km, 99.0° (Epoch: 26 January)

Event Time Altitude Azimuth Distance (km) Brightness Sun altitude
Rises 17:37:12 0° 162° (SSE) 3,308 7.2 -18.9°
Reaches altitude 10° 17:39:31 10° 162° (SSE) 2,381 6.5 -19.3°
Maximum altitude 17:44:48 88° 74° (ENE) 814 4.0 -20.2°
Drops below altitude 10° 17:50:07 10° 346° (NNW) 2,398 6.6 -21.1°
Sets 17:52:28 0° 346° (NNW) 3,332 7.4 -21.5°
